Date String (YYYY-MM-DD hh:mm:ss) UTC,Instrument flags,Ambient pressure (hPa),Sample flow (lpm),Bypass flow (lpm),Sample temperature (°C),Ambient temperature (°C),ASC tube jacket temperature (°C),LED temperature (°C),Box temperature (°C),Sample RH (%),Span deviation,Mass concentration (μg/m³),Mass concentration (μg/m³),Mass concentration (μg/m³)
DateTimeUTC,F1_M11,P_M11,Q1_M11,Q2_M11,T1_M11,T2_M11,T3_M11,T4_M11,T5_M11,U1_M11,ZSPAN_M11,X0_M11,X2_M11,X1_M11
2023-01-24 08:00:00,,0822.0,4.99,0.00,22.5,20.9,00.0,31.3,24.2,13.6,-001.8,0020.71,0018.87,0018.53
2023-01-24 08:01:00,,0822.0,5.01,0.00,22.4,20.9,00.0,31.3,24.2,13.7,-001.7,0021.44,0018.93,0018.60
2023-01-24 08:02:00,,0822.1,5.00,0.00,22.4,20.9,00.0,31.3,24.2,13.7,-001.8,0021.55,0019.00,0018.65
2023-01-24 08:03:00,,0822.1,4.99,0.00,22.4,20.9,00.0,31.2,24.2,13.7,-001.8,0021.70,0019.09,0018.73
2023-01-24 08:04:00,,0822.0,5.01,0.00,22.4,20.9,00.0,31.2,24.2,13.7,-001.8,0021.79,0019.15,0018.79
2023-01-24 08:05:00,,0822.0,5.03,0.00,22.4,20.9,00.0,31.2,24.2,13.7,-001.7,0022.00,0019.15,0018.82
2023-01-24 08:06:00,,0822.0,5.01,0.00,22.4,20.9,00.0,31.2,24.2,13.7,-001.4,0021.97,0019.14,0018.82
2023-01-24 08:07:00,,0822.0,5.01,0.00,22.5,21.5,00.0,31.2,24.4,13.6,-001.4,0021.96,0019.14,0018.82
2023-01-24 08:08:00,,0822.1,4.99,0.00,22.6,22.5,00.0,31.2,24.5,13.6,-001.3,0021.97,0019.15,0018.82
2023-01-24 08:09:00,,0822.1,5.00,0.00,22.7,23.0,00.0,31.2,24.7,13.5,-001.1,0021.98,0019.16,0018.84
2023-01-24 08:10:00,,0822.1,4.98,0.00,22.7,22.6,00.0,31.3,24.7,13.5,-001.1,0021.93,0019.13,0018.82
2023-01-24 08:11:00,,0822.1,5.02,0.00,22.7,22.3,00.0,31.3,24.6,13.5,-001.0,0021.79,0019.11,0018.83
2023-01-24 08:12:00,,0822.1,5.00,0.00,22.7,22.0,00.0,31.3,24.6,13.5,-001.1,0021.14,0019.14,0018.87
2023-01-24 08:13:00,,0822.1,5.00,0.00,22.7,21.7,00.0,31.3,24.5,13.5,-001.1,0021.10,0019.15,0018.87
2023-01-24 08:14:00,,0822.1,4.99,0.00,22.7,21.6,00.0,31.3,24.5,13.5,-001.2,0021.12,0019.12,0018.84
2023-01-24 08:15:00,,0822.1,5.01,0.00,22.7,21.5,00.0,31.4,24.5,13.5,-001.1,0021.17,0019.15,0018.86
2023-01-24 08:16:00,,0822.1,5.01,0.00,22.7,21.3,00.0,31.4,24.5,13.5,-001.0,0020.91,0019.16,0018.85
2023-01-24 08:17:00,,0822.1,4.99,0.00,22.7,21.3,00.0,31.4,24.4,13.5,-001.2,0020.92,0019.20,0018.87
2023-01-24 08:18:00,,0822.1,5.00,0.00,22.7,21.3,00.0,31.4,24.4,13.5,-001.3,0020.98,0019.23,0018.91
2023-01-24 08:19:00,,0822.1,4.99,0.00,22.6,21.2,00.0,31.4,24.4,13.5,-001.2,0020.98,0019.23,0018.92
2023-01-24 08:20:00,,0822.2,5.00,0.00,22.6,21.1,00.0,31.4,24.4,13.5,-001.2,0021.05,0019.27,0018.95
2023-01-24 08:21:00,,0822.1,5.00,0.00,22.6,21.1,00.0,31.4,24.4,13.5,-001.5,0021.05,0019.29,0018.97
2023-01-24 08:22:00,,0822.1,5.00,0.00,22.6,21.1,00.0,31.4,24.3,13.5,-001.7,0021.40,0019.29,0018.95
2023-01-24 08:23:00,,0822.1,5.01,0.00,22.6,21.1,00.0,31.4,24.3,13.5,-001.7,0022.02,0019.26,0018.91
2023-01-24 08:24:00,,0822.2,5.01,0.00,22.6,21.1,00.0,31.3,24.3,13.5,-001.7,0022.03,0019.20,0018.85
2023-01-24 08:25:00,,0822.2,4.98,0.00,22.6,21.1,00.0,31.3,24.3,13.5,-001.6,0021.97,0019.18,0018.84
2023-01-24 08:26:00,,0822.2,4.99,0.00,22.6,21.0,00.0,31.3,24.3,13.5,-001.8,0021.77,0019.11,0018.80
2023-01-24 08:27:00,,0822.3,4.99,0.00,22.5,21.0,00.0,31.3,24.3,13.5,-001.8,0021.78,0019.09,0018.78
2023-01-24 08:28:00,,0822.3,5.05,0.00,22.5,21.0,00.0,31.3,24.3,13.6,-001.9,0021.85,0019.06,0018.72
2023-01-24 08:29:00,,0822.3,5.00,0.00,22.5,21.0,00.0,31.3,24.3,13.6,-001.9,0022.52,0019.01,0018.67
2023-01-24 08:30:00,,0822.3,5.02,0.00,22.5,21.0,00.0,31.3,24.3,13.6,-002.1,0022.61,0018.98,0018.64
2023-01-24 08:31:00,,0822.4,4.98,0.00,22.5,20.9,00.0,31.3,24.2,13.6,-002.2,0022.57,0018.94,0018.59
2023-01-24 08:32:00,,0822.4,5.00,0.00,22.5,20.9,00.0,31.3,24.2,13.6,-002.2,0022.58,0018.93,0018.58
2023-01-24 08:33:00,,0822.4,5.04,0.00,22.5,20.9,00.0,31.3,24.2,13.6,-002.1,0022.17,0018.89,0018.55
2023-01-24 08:34:00,,0822.4,5.01,0.00,22.4,20.9,00.0,31.3,24.2,13.6,-002.1,0021.54,0018.86,0018.54
2023-01-24 08:35:00,,0822.4,4.99,0.00,22.5,21.3,00.0,31.3,24.3,13.6,-002.0,0021.44,0018.88,0018.57
2023-01-24 08:36:00,,0822.4,4.99,0.00,22.6,22.3,00.0,31.2,24.5,13.5,-001.9,0021.84,0018.92,0018.60
2023-01-24 08:37:00,,0822.4,5.00,0.00,22.7,23.0,00.0,31.3,24.7,13.4,-001.7,0022.16,0018.97,0018.62
2023-01-24 08:38:00,,0822.5,4.99,0.00,22.7,22.8,00.0,31.3,24.7,13.4,-001.8,0022.20,0018.98,0018.63
2023-01-24 08:39:00,,0822.6,5.00,0.00,22.7,22.4,00.0,31.3,24.7,13.4,-001.8,0022.09,0018.99,0018.69
2023-01-24 08:40:00,,0822.6,4.98,0.00,22.7,22.1,00.0,31.4,24.6,13.4,-001.8,0021.35,0019.02,0018.73
2023-01-24 08:41:00,,0822.6,5.00,0.00,22.7,21.8,00.0,31.4,24.6,13.4,-001.8,0021.33,0019.07,0018.78
2023-01-24 08:42:00,,0822.6,5.00,0.00,22.7,21.7,00.0,31.4,24.5,13.4,-001.7,0021.47,0019.13,0018.83
2023-01-24 08:43:00,,0822.6,5.01,0.00,22.7,21.5,00.0,31.4,24.5,13.4,-001.6,0021.52,0019.15,0018.85
2023-01-24 08:44:00,,0822.6,5.00,0.00,22.7,21.4,00.0,31.4,24.5,13.4,-001.6,0021.61,0019.21,0018.91
2023-01-24 08:45:00,,0822.6,5.00,0.00,22.7,21.4,00.0,31.4,24.5,13.4,-001.5,0021.71,0019.23,0018.93
2023-01-24 08:46:00,,0822.6,4.99,0.00,22.7,21.3,00.0,31.4,24.5,13.4,-001.4,0021.79,0019.27,0018.95
2023-01-24 08:47:00,,0822.6,5.00,0.00,22.7,21.2,00.0,31.4,24.4,13.4,-001.5,0021.60,0019.26,0018.94
2023-01-24 08:48:00,,0822.6,5.00,0.00,22.7,21.2,00.0,31.4,24.4,13.4,-001.7,0021.56,0019.29,0018.97
2023-01-24 08:49:00,,0822.6,5.00,0.00,22.6,21.2,00.0,31.4,24.4,13.4,-001.8,0021.72,0019.34,0019.00
2023-01-24 08:50:00,,0822.6,5.00,0.00,22.6,21.1,00.0,31.4,24.4,13.4,-001.7,0022.00,0019.37,0019.00
2023-01-24 08:51:00,,0822.6,5.00,0.00,22.6,21.1,00.0,31.4,24.4,13.4,-001.7,0022.23,0019.35,0018.97
2023-01-24 08:52:00,,0822.6,4.98,0.00,22.6,21.1,00.0,31.4,24.4,13.4,-001.7,0022.27,0019.28,0018.89
2023-01-24 08:53:00,,0822.7,5.01,0.00,22.6,21.0,00.0,31.4,24.4,13.4,-001.8,0022.11,0019.18,0018.79
2023-01-24 08:54:00,,0822.7,5.02,0.00,22.6,21.0,00.0,31.4,24.3,13.3,-001.8,0022.01,0019.12,0018.74
2023-01-24 08:55:00,,0822.7,5.01,0.00,22.6,21.0,00.0,31.4,24.3,13.3,-001.8,0022.07,0019.09,0018.69
2023-01-24 08:56:00,,0822.7,5.02,0.00,22.6,20.9,00.0,31.3,24.3,13.3,-001.9,0022.01,0019.04,0018.63
2023-01-24 08:57:00,,0822.7,5.01,0.00,22.5,20.9,00.0,31.3,24.3,13.3,-002.1,0022.02,0018.97,0018.55
2023-01-24 08:58:00,,0822.7,5.01,0.00,22.5,20.9,00.0,31.3,24.3,13.3,-002.2,0022.32,0018.89,0018.48
2023-01-24 08:59:00,,0822.7,4.99,0.00,22.5,20.9,00.0,31.3,24.3,13.3,-002.1,0022.49,0018.74,0018.35
